Time,TemperatureF,DewpointF,PressureIn,WindDirection,WindDirectionDegrees,WindSpeedMPH,WindSpeedGustMPH,Humidity,HourlyPrecipIn,Conditions,Clouds,dailyrainin,SoftwareType,DateUTC
2013-06-29 01:42:00,64.0,64.0,29.60,ENE,60,0.0,0.0,100,0.03,,,-99.99,,2013-06-29 05:42:00,
2013-06-29 01:52:00,63.0,63.0,29.60,NNE,30,2.0,0.0,100,0.03,,,-99.99,,2013-06-29 05:52:00,
2013-06-29 02:01:00,63.0,63.0,29.60,NNE,30,2.0,0.0,100,0.03,,,-99.99,,2013-06-29 06:01:00,
2013-06-29 02:12:00,63.0,63.0,29.59,NNE,30,0.0,0.0,100,0.03,,,-99.99,,2013-06-29 06:12:00,
2013-06-29 02:33:00,63.0,63.0,29.59,NE,52,4.0,0.0,100,0.03,,,-99.99,,2013-06-29 06:33:00,
2013-06-29 02:53:00,63.0,63.0,29.59,NE,45,0.0,0.0,100,0.03,,,-99.99,,2013-06-29 06:53:00,
2013-06-29 03:02:00,63.0,63.0,29.60,NNE,27,0.0,0.0,100,0.03,,,-99.99,,2013-06-29 07:02:00,
2013-06-29 03:43:00,62.0,62.0,29.60,NNE,27,0.0,0.0,100,0.03,,,-99.99,,2013-06-29 07:43:00,
2013-06-29 03:53:00,62.0,62.0,29.60,NNE,27,0.0,0.0,100,0.03,,,-99.99,,2013-06-29 07:53:00,
2013-06-29 04:01:00,62.0,62.0,29.60,NNE,27,0.0,0.0,100,0.03,,,-99.99,,2013-06-29 08:01:00,
2013-06-29 04:12:00,62.0,62.0,29.59,NNE,27,0.0,0.0,100,0.03,,,-99.99,,2013-06-29 08:12:00,
2013-06-29 04:33:00,62.0,62.0,29.59,NNE,27,0.0,0.0,100,0.03,,,-99.99,,2013-06-29 08:33:00,
2013-06-29 04:43:00,62.0,62.0,29.59,NNE,27,0.0,0.0,100,0.03,,,-99.99,,2013-06-29 08:43:00,
2013-06-29 04:52:00,61.0,61.0,29.59,NNE,27,0.0,0.0,100,0.03,,,-99.99,,2013-06-29 08:52:00,
2013-06-29 05:02:00,61.0,61.0,29.59,NNE,27,0.0,0.0,100,0.03,,,-99.99,,2013-06-29 09:02:00,
2013-06-29 05:22:00,61.0,61.0,29.59,NNE,27,0.0,0.0,100,0.03,,,-99.99,,2013-06-29 09:22:00,
2013-06-29 05:33:00,61.0,61.0,29.60,NNE,27,0.0,0.0,100,0.03,,,-99.99,,2013-06-29 09:33:00,
2013-06-29 05:42:00,61.0,61.0,29.60,NNE,27,0.0,0.0,100,0.03,,,-99.99,,2013-06-29 09:42:00,
2013-06-29 05:53:00,61.0,61.0,29.60,NNE,27,0.0,0.0,100,0.03,,,-99.99,,2013-06-29 09:53:00,
2013-06-29 06:01:00,61.0,61.0,29.61,NNE,27,0.0,0.0,100,0.03,,,-99.99,,2013-06-29 10:01:00,
2013-06-29 06:11:00,61.0,61.0,29.60,NNE,27,0.0,0.0,100,0.03,,,-99.99,,2013-06-29 10:11:00,
2013-06-29 06:22:00,61.0,61.0,29.61,NNE,27,0.0,0.0,100,0.03,,,-99.99,,2013-06-29 10:22:00,
2013-06-29 06:33:00,61.0,61.0,29.61,NNE,27,0.0,0.0,100,0.03,,,-99.99,,2013-06-29 10:33:00,
2013-06-29 06:43:00,61.0,61.0,29.61,NNE,27,0.0,0.0,100,0.03,,,-99.99,,2013-06-29 10:43:00,
2013-06-29 06:52:00,61.0,61.0,29.61,NNE,20,3.0,0.0,100,0.03,,,-99.99,,2013-06-29 10:52:00,
2013-06-29 07:02:00,61.0,61.0,29.61,North,8,2.0,0.0,100,0.03,,,-99.99,,2013-06-29 11:02:00,
2013-06-29 07:11:00,61.0,61.0,29.61,North,6,3.0,0.0,100,0.03,,,-99.99,,2013-06-29 11:11:00,
2013-06-29 07:23:00,61.0,61.0,29.61,NNE,25,2.0,0.0,100,0.03,,,-99.99,,2013-06-29 11:23:00,
2013-06-29 07:33:00,62.0,62.0,29.62,NE,42,5.0,0.0,100,0.03,,,-99.99,,2013-06-29 11:33:00,
2013-06-29 07:43:00,62.0,62.0,29.62,NNE,17,0.0,0.0,100,0.03,,,-99.99,,2013-06-29 11:43:00,
2013-06-29 07:53:00,62.0,62.0,29.63,NNE,31,2.0,0.0,100,0.03,,,-99.99,,2013-06-29 11:53:00,
2013-06-29 08:02:00,62.0,62.0,29.63,North,10,2.0,0.0,100,0.03,,,-99.99,,2013-06-29 12:02:00,
2013-06-29 08:12:00,62.0,62.0,29.63,North,10,2.0,0.0,100,0.03,,,-99.99,,2013-06-29 12:12:00,
2013-06-29 08:43:00,62.0,62.0,29.64,NE,46,3.0,0.0,100,0.03,,,-99.99,,2013-06-29 12:43:00,
2013-06-29 09:02:00,63.0,63.0,29.63,North,3,5.0,0.0,100,0.03,,,-99.99,,2013-06-29 13:02:00,
2013-06-29 09:43:00,64.0,64.0,29.64,NE,45,0.0,0.0,100,0.03,,,-99.99,,2013-06-29 13:43:00,
2013-06-29 10:12:00,65.0,65.0,29.64,North,8,5.0,0.0,100,0.03,,,-99.99,,2013-06-29 14:12:00,
2013-06-29 10:23:00,65.0,65.0,29.64,ENE,59,6.0,0.0,100,0.03,,,-99.99,,2013-06-29 14:23:00,
2013-06-29 10:34:00,65.0,65.0,29.64,NE,51,6.0,0.0,100,0.03,,,-99.99,,2013-06-29 14:34:00,
2013-06-29 10:44:00,66.0,66.0,29.64,NE,49,5.0,0.0,100,0.03,,,-99.99,,2013-06-29 14:44:00,
2013-06-29 10:53:00,66.0,66.0,29.64,NE,49,5.0,0.0,100,0.03,,,-99.99,,2013-06-29 14:53:00,
2013-06-29 11:01:00,66.0,66.0,29.64,NE,45,6.0,0.0,100,0.03,,,-99.99,,2013-06-29 15:01:00,
2013-06-29 11:11:00,67.0,67.0,29.64,NE,35,7.0,0.0,100,0.03,,,-99.99,,2013-06-29 15:11:00,
2013-06-29 11:22:00,67.0,67.0,29.64,NE,51,6.0,0.0,100,0.03,,,-99.99,,2013-06-29 15:22:00,
2013-06-29 11:33:00,68.0,68.0,29.64,NNE,30,8.0,0.0,99,0.03,,,-99.99,,2013-06-29 15:33:00,
2013-06-29 11:42:00,67.0,66.0,29.65,ESE,114,6.0,0.0,96,0.03,,,-99.99,,2013-06-29 15:42:00,
2013-06-29 11:53:00,68.0,67.0,29.65,North,6,6.0,0.0,96,0.03,,,-99.99,,2013-06-29 15:53:00,
2013-06-29 12:02:00,68.0,67.0,29.65,NE,42,6.0,0.0,95,0.03,,,-99.99,,2013-06-29 16:02:00,
2013-06-29 12:12:00,68.0,66.0,29.65,NE,52,8.0,0.0,94,0.03,,,-99.99,,2013-06-29 16:12:00,
2013-06-29 12:22:00,67.0,66.0,29.65,North,4,10.0,0.0,97,0.03,,,-99.99,,2013-06-29 16:22:00,
2013-06-29 12:33:00,65.0,65.0,29.65,North,4,11.0,0.0,99,0.03,,,-99.99,,2013-06-29 16:33:00,
2013-06-29 12:43:00,65.0,65.0,29.66,NNW,346,8.0,0.0,100,0.03,,,-99.99,,2013-06-29 16:43:00,
2013-06-29 12:53:00,65.0,65.0,29.66,North,352,10.0,0.0,100,0.03,,,-99.99,,2013-06-29 16:53:00,
2013-06-29 13:01:00,65.0,65.0,29.66,North,354,6.0,0.0,100,0.03,,,-99.99,,2013-06-29 17:01:00,
2013-06-29 13:12:00,66.0,66.0,29.66,NNE,17,7.0,0.0,100,0.03,,,-99.99,,2013-06-29 17:12:00,
2013-06-29 13:23:00,66.0,66.0,29.66,ENE,62,8.0,0.0,100,0.03,,,-99.99,,2013-06-29 17:23:00,
2013-06-29 13:34:00,67.0,67.0,29.66,NE,51,8.0,0.0,99,0.03,,,-99.99,,2013-06-29 17:34:00,
2013-06-29 13:42:00,67.0,66.0,29.66,ENE,72,10.0,0.0,97,0.03,,,-99.99,,2013-06-29 17:42:00,
2013-06-29 13:52:00,68.0,67.0,29.66,NE,42,11.0,0.0,95,0.03,,,-99.99,,2013-06-29 17:52:00,
2013-06-29 14:02:00,68.0,66.0,29.66,NNE,32,12.0,0.0,93,0.03,,,-99.99,,2013-06-29 18:02:00,
2013-06-29 14:12:00,68.0,65.0,29.66,NE,53,10.0,0.0,91,0.03,,,-99.99,,2013-06-29 18:12:00,
2013-06-29 14:22:00,69.0,66.0,29.66,NE,49,11.0,0.0,89,0.03,,,-99.99,,2013-06-29 18:22:00,
2013-06-29 14:34:00,69.0,66.0,29.66,NNE,13,9.0,0.0,90,0.03,,,-99.99,,2013-06-29 18:34:00,
2013-06-29 14:43:00,69.0,66.0,29.66,ENE,59,10.0,0.0,91,0.03,,,-99.99,,2013-06-29 18:43:00,
2013-06-29 14:53:00,69.0,66.0,29.67,NE,41,11.0,0.0,89,0.03,,,-99.99,,2013-06-29 18:53:00,
2013-06-29 15:01:00,69.0,66.0,29.67,NE,41,11.0,0.0,89,0.03,,,-99.99,,2013-06-29 19:01:00,
2013-06-29 15:12:00,68.0,66.0,29.67,NE,38,12.0,0.0,92,0.03,,,-99.99,,2013-06-29 19:12:00,
2013-06-29 15:22:00,67.0,65.0,29.67,NE,44,12.0,0.0,92,0.03,,,-99.99,,2013-06-29 19:22:00,
2013-06-29 15:34:00,68.0,65.0,29.67,NNE,17,13.0,0.0,91,0.03,,,-99.99,,2013-06-29 19:34:00,
2013-06-29 15:43:00,69.0,66.0,29.67,NE,44,14.0,0.0,89,0.03,,,-99.99,,2013-06-29 19:43:00,
2013-06-29 15:54:00,69.0,65.0,29.67,NE,39,14.0,0.0,87,0.03,,,-99.99,,2013-06-29 19:54:00,
2013-06-29 16:02:00,70.0,64.0,29.67,NNE,21,14.0,0.0,82,0.03,,,-99.99,,2013-06-29 20:02:00,
2013-06-29 16:12:00,69.0,63.0,29.67,ENE,58,12.0,0.0,82,0.03,,,-99.99,,2013-06-29 20:12:00,
2013-06-29 16:23:00,69.0,63.0,29.68,ENE,59,10.0,0.0,82,0.03,,,-99.99,,2013-06-29 20:23:00,
2013-06-29 16:33:00,70.0,65.0,29.68,NE,48,9.0,0.0,83,0.03,,,-99.99,,2013-06-29 20:33:00,
2013-06-29 16:43:00,69.0,64.0,29.68,ENE,60,9.0,0.0,85,0.03,,,-99.99,,2013-06-29 20:43:00,
2013-06-29 16:52:00,69.0,64.0,29.68,ENE,59,9.0,0.0,84,0.03,,,-99.99,,2013-06-29 20:52:00,
2013-06-29 17:02:00,69.0,64.0,29.69,NE,42,11.0,0.0,83,0.03,,,-99.99,,2013-06-29 21:02:00,
2013-06-29 17:11:00,69.0,64.0,29.69,NE,42,11.0,0.0,83,0.03,,,-99.99,,2013-06-29 21:11:00,
2013-06-29 17:22:00,69.0,64.0,29.69,East,84,9.0,0.0,85,0.03,,,-99.99,,2013-06-29 21:22:00,
2013-06-29 17:32:00,69.0,63.0,29.69,East,91,9.0,0.0,82,0.03,,,-99.99,,2013-06-29 21:32:00,
2013-06-29 17:42:00,69.0,63.0,29.69,NE,55,9.0,0.0,81,0.03,,,-99.99,,2013-06-29 21:42:00,
2013-06-29 17:52:00,69.0,62.0,29.69,ENE,62,10.0,0.0,79,0.03,,,-99.99,,2013-06-29 21:52:00,
2013-06-29 18:01:00,69.0,62.0,29.69,NE,39,9.0,0.0,78,0.03,,,-99.99,,2013-06-29 22:01:00,
2013-06-29 18:11:00,70.0,62.0,29.70,NNE,31,10.0,0.0,77,0.03,,,-99.99,,2013-06-29 22:11:00,
2013-06-29 18:21:00,70.0,63.0,29.70,NE,56,9.0,0.0,78,0.03,,,-99.99,,2013-06-29 22:21:00,
2013-06-29 18:33:00,70.0,63.0,29.70,ESE,105,6.0,0.0,78,0.03,,,-99.99,,2013-06-29 22:33:00,
2013-06-29 18:53:00,70.0,62.0,29.70,East,91,6.0,0.0,77,0.03,,,-99.99,,2013-06-29 22:53:00,
2013-06-29 19:02:00,70.0,62.0,29.70,ENE,66,8.0,0.0,77,0.03,,,-99.99,,2013-06-29 23:02:00,
2013-06-29 19:12:00,70.0,62.0,29.70,ENE,66,8.0,0.0,77,0.03,,,-99.99,,2013-06-29 23:12:00,
2013-06-29 19:23:00,70.0,63.0,29.71,ENE,58,7.0,0.0,78,0.03,,,-99.99,,2013-06-29 23:23:00,
2013-06-29 19:34:00,70.0,63.0,29.71,ENE,58,7.0,0.0,78,0.03,,,-99.99,,2013-06-29 23:34:00,
2013-06-29 19:43:00,70.0,64.0,29.72,ESE,110,5.0,0.0,80,0.03,,,-99.99,,2013-06-29 23:43:00,
2013-06-29 19:53:00,70.0,64.0,29.72,ENE,62,6.0,0.0,80,0.03,,,-99.99,,2013-06-29 23:53:00,
2013-06-29 20:02:00,69.0,63.0,29.73,East,96,6.0,0.0,81,0.03,,,-99.99,,2013-06-30 00:02:00,
2013-06-29 20:12:00,70.0,64.0,29.73,ENE,65,7.0,0.0,81,0.03,,,-99.99,,2013-06-30 00:12:00,
2013-06-29 20:22:00,69.0,63.0,29.73,ENE,58,6.0,0.0,82,0.03,,,-99.99,,2013-06-30 00:22:00,
2013-06-29 20:33:00,69.0,64.0,29.73,NE,55,7.0,0.0,83,0.03,,,-99.99,,2013-06-30 00:33:00,
2013-06-29 20:43:00,69.0,64.0,29.73,ENE,59,7.0,0.0,84,0.03,,,-99.99,,2013-06-30 00:43:00,
2013-06-29 20:52:00,69.0,64.0,29.73,ESE,111,6.0,0.0,85,0.03,,,-99.99,,2013-06-30 00:52:00,
2013-06-29 21:01:00,69.0,64.0,29.73,NE,55,6.0,0.0,85,0.03,,,-99.99,,2013-06-30 01:01:00,
2013-06-29 21:11:00,69.0,65.0,29.74,NE,37,3.0,0.0,87,0.03,,,-99.99,,2013-06-30 01:11:00,
2013-06-29 21:22:00,68.0,64.0,29.74,ENE,75,5.0,0.0,88,0.03,,,-99.99,,2013-06-30 01:22:00,
2013-06-29 21:33:00,68.0,65.0,29.74,ENE,73,3.0,0.0,89,0.03,,,-99.99,,2013-06-30 01:33:00,
2013-06-29 21:44:00,68.0,65.0,29.75,NNE,31,1.0,0.0,89,0.03,,,-99.99,,2013-06-30 01:44:00,
2013-06-29 21:53:00,68.0,65.0,29.75,NNE,31,0.0,0.0,89,0.03,,,-99.99,,2013-06-30 01:53:00,
2013-06-29 22:02:00,68.0,65.0,29.75,NNE,31,0.0,0.0,90,0.03,,,-99.99,,2013-06-30 02:02:00,
2013-06-29 22:11:00,67.0,64.0,29.75,NE,52,6.0,0.0,90,0.03,,,-99.99,,2013-06-30 02:11:00,
2013-06-29 22:23:00,67.0,64.0,29.76,NE,34,5.0,0.0,90,0.03,,,-99.99,,2013-06-30 02:23:00,
2013-06-29 22:34:00,67.0,64.0,29.76,NE,37,5.0,0.0,90,0.03,,,-99.99,,2013-06-30 02:34:00,
2013-06-29 22:43:00,67.0,65.0,29.77,NNE,20,0.0,0.0,93,0.03,,,-99.99,,2013-06-30 02:43:00,
2013-06-29 22:53:00,66.0,64.0,29.77,NNE,20,0.0,0.0,93,0.03,,,-99.99,,2013-06-30 02:53:00,
2013-06-29 23:01:00,66.0,64.0,29.78,NNE,20,0.0,0.0,94,0.03,,,-99.99,,2013-06-30 03:01:00,
2013-06-29 23:12:00,66.0,64.0,29.78,NNE,20,0.0,0.0,94,0.03,,,-99.99,,2013-06-30 03:12:00,
2013-06-29 23:23:00,66.0,65.0,29.78,NNE,20,0.0,0.0,95,0.03,,,-99.99,,2013-06-30 03:23:00,
2013-06-29 23:33:00,66.0,65.0,29.78,NNE,20,0.0,0.0,95,0.03,,,-99.99,,2013-06-30 03:33:00,
2013-06-29 23:43:00,66.0,65.0,29.78,NNE,20,0.0,0.0,95,0.03,,,-99.99,,2013-06-30 03:43:00,
2013-06-29 23:53:00,66.0,65.0,29.78,North,3,5.0,0.0,96,0.03,,,-99.99,,2013-06-30 03:53:00,